KD2SIG Weather Reports


time (UTC)temp
C
wind
direction
speed
KPH
gust
KPH
rain 1hr
cm
rain 24hr
cm
rain mn
cm
humidity
%
barometer
mb
20260509224552 16 222 4.8 4.8 0.00 0.00 0.00 68 1005.4
20260509224049 16 228 3.2 3.2 0.00 0.00 0.00 67 1005.3
20260509223546 17 236 8.0 9.7 0.00 0.00 0.00 66 1005.2
20260509223044 17 215 3.2 3.2 0.00 0.00 0.00 66 1005.0
20260509222539 17 180 4.8 8.0 0.00 0.00 0.00 64 1005.1
20260509222036 17 182 4.8 4.8 0.00 0.00 0.00 66 1005.4
20260509221531 16 237 4.8 8.0 0.00 0.00 0.00 66 1005.3
20260509221027 17 242 4.8 4.8 0.00 0.00 0.00 65 1005.3
20260509220524 17 235 3.2 4.8 0.00 0.00 0.00 64 1005.2
20260509220020 17 217 4.8 4.8 0.00 0.00 0.00 63 1005.5
20260509215515 17 126 8.0 16.1 0.00 0.00 0.00 62 1005.3
20260509215013 17 246 8.0 9.7 0.00 0.00 0.00 62 1005.1
20260509214510 17 220 1.6 1.6 0.00 0.00 0.00 64 1005.4
20260509214007 17 236 1.6 1.6 0.00 0.00 0.00 64 1005.4
20260509213503 17 206 4.8 4.8 0.00 0.00 0.00 64 1005.5
20260509213000 17 156 1.6 3.2 0.00 0.00 0.00 65 1005.3
20260509212457 16 241 1.6 1.6 0.00 0.00 0.00 66 1005.6
20260509211954 16 238 0.0 1.6 0.00 0.00 0.00 65 1005.5
20260509211449 17 253 3.2 3.2 0.00 0.00 0.00 64 1005.9
20260509210946 17 231 3.2 3.2 0.00 0.00 0.00 64 1005.8
20260509210443 16 149 1.6 1.6 0.00 0.00 0.00 67 1005.8
20260509205938 16 220 4.8 4.8 0.00 0.00 0.00 66 1005.7
20260509205433 16 301 3.2 3.2 0.00 0.00 0.00 64 1005.7
20260509204929 16 305 8.0 11.3 0.00 0.00 0.00 65 1005.7
20260509204425 17 236 4.8 8.0 0.00 0.00 0.00 63 1006.1
20260509203923 17 253 3.2 3.2 0.00 0.00 0.00 62 1005.8
20260509203418 16 220 4.8 4.8 0.00 0.00 0.00 65 1005.8
20260509202916 16 185 3.2 4.8 0.00 0.00 0.00 65 1005.9
20260509202412 17 190 4.8 8.0 0.00 0.00 0.00 62 1006.1
20260509201907 16 194 4.8 8.0 0.00 0.00 0.00 63 1006.0
20260509201403 16 238 1.6 3.2 0.00 0.00 0.00 65 1006.2
20260509200900 16 176 3.2 3.2 0.00 0.00 0.00 66 1006.0
20260509200359 16 201 4.8 4.8 0.00 0.00 0.00 66 1006.2
20260509195857 16 237 4.8 8.0 0.00 0.00 0.00 64 1006.4
20260509195357 16 181 6.4 8.0 0.00 0.00 0.00 66 1006.5
20260509194857 16 231 1.6 3.2 0.00 0.00 0.00 64 1006.4
20260509194353 17 209 6.4 8.0 0.00 0.00 0.00 63 1006.4
20260509193850 17 203 8.0 11.3 0.00 0.00 0.00 63 1006.5
20260509193350 17 119 8.0 11.3 0.00 0.00 0.00 63 1006.6
20260509192846 17 183 4.8 9.7 0.00 0.00 0.00 64 1006.8
20260509192342 17 84 8.0 11.3 0.00 0.00 0.00 63 1006.6
20260509191838 17 218 9.7 16.1 0.00 0.00 0.00 62 1006.7
20260509191333 17 210 0.0 1.6 0.00 0.00 0.00 62 1006.7
20260509190830 17 171 8.0 9.7 0.00 0.00 0.00 61 1006.9
20260509190327 17 260 4.8 4.8 0.00 0.00 0.00 63 1006.7
20260509185824 18 239 8.0 11.3 0.00 0.00 0.00 59 1007.1
20260509185320 17 214 8.0 11.3 0.00 0.00 0.00 60 1006.8
20260509184818 17 148 12.9 14.5 0.00 0.00 0.00 60 1006.9
20260509184315 17 209 8.0 12.9 0.00 0.00 0.00 59 1006.8
20260509183812 18 223 8.0 9.7 0.00 0.00 0.00 55 1006.9
20260509183307 18 236 3.2 4.8 0.00 0.00 0.00 55 1006.6
20260509182803 18 204 8.0 11.3 0.00 0.00 0.00 57 1007.2
20260509182300 18 296 8.0 9.7 0.00 0.00 0.00 55 1006.9
20260509181757 18 311 8.0 11.3 0.00 0.00 0.00 54 1006.9
20260509181255 18 245 6.4 8.0 0.00 0.00 0.00 54 1006.8
20260509180752 18 237 3.2 4.8 0.00 0.00 0.00 54 1006.8
20260509180248 19 205 6.4 9.7 0.00 0.00 0.00 51 1006.7
20260509175744 18 228 8.0 8.0 0.00 0.00 0.00 52 1007.1
20260509175241 18 206 1.6 3.2 0.00 0.00 0.00 52 1006.9
20260509174737 17 260 3.2 3.2 0.00 0.00 0.00 56 1006.8
20260509174232 17 228 4.8 8.0 0.00 0.00 0.00 52 1007.3
20260509173729 18 225 6.4 9.7 0.00 0.00 0.00 53 1006.9
20260509173225 18 254 1.6 3.2 0.00 0.00 0.00 51 1007.4
20260509172721 17 214 4.8 4.8 0.00 0.00 0.00 52 1007.4
20260509172217 17 208 4.8 8.0 0.00 0.00 0.00 53 1007.7
20260509171713 17 232 1.6 1.6 0.00 0.00 0.00 54 1007.6
20260509171209 17 254 3.2 4.8 0.00 0.00 0.00 55 1007.5
20260509170706 18 248 1.6 1.6 0.00 0.00 0.00 52 1007.6
20260509170202 17 243 4.8 4.8 0.00 0.00 0.00 54 1007.9
20260509165701 17 232 3.2 3.2 0.00 0.00 0.00 56 1007.7
20260509165156 16 269 6.4 8.0 0.00 0.00 0.00 59 1007.7
20260509164652 16 271 0.0 1.6 0.00 0.00 0.00 60 1007.9
20260509164148 16 159 3.2 3.2 0.00 0.00 0.00 60 1008.0
20260509163646 16 268 6.4 8.0 0.00 0.00 0.00 60 1008.1
20260509163142 17 278 1.6 1.6 0.00 0.00 0.00 60 1008.0
20260509162639 16 239 6.4 9.7 0.00 0.00 0.00 59 1008.1
20260509162135 16 268 1.6 3.2 0.00 0.00 0.00 61 1008.2
20260509161631 17 257 3.2 3.2 0.00 0.00 0.00 58 1008.6
20260509161126 16 266 3.2 3.2 0.00 0.00 0.00 61 1008.3
20260509160622 16 229 0.0 0.0 0.00 0.00 0.00 60 1008.7
20260509160118 16 194 4.8 8.0 0.00 0.00 0.00 59 1008.5
20260509155614 16 226 4.8 8.0 0.00 0.00 0.00 61 1008.8
20260509155111 16 122 3.2 8.0 0.00 0.00 0.00 60 1009.0
20260509154606 17 158 4.8 4.8 0.00 0.00 0.00 59 1008.9
20260509154104 16 293 3.2 4.8 0.00 0.00 0.00 58 1008.8
20260509153601 16 193 3.2 4.8 0.00 0.00 0.00 58 1009.0
20260509153058 16 231 3.2 3.2 0.00 0.00 0.00 59 1009.0
20260509152554 16 231 1.6 3.2 0.00 0.00 0.00 59 1009.2
20260509152051 15 220 4.8 4.8 0.00 0.00 0.00 59 1009.1
20260509151547 15 226 1.6 1.6 0.00 0.00 0.00 59 1009.0
20260509151045 16 245 1.6 1.6 0.00 0.00 0.00 57 1009.1
20260509150542 16 244 4.8 4.8 0.00 0.00 0.00 59 1009.3
20260509150041 15 235 1.6 1.6 0.00 0.00 0.00 60 1009.3
20260509145536 15 265 4.8 4.8 0.00 0.00 0.00 59 1009.3
20260509145031 15 212 3.2 4.8 0.00 0.00 0.00 58 1009.3
20260509144528 15 263 3.2 4.8 0.00 0.00 0.00 60 1009.5
20260509144026 15 222 3.2 3.2 0.00 0.00 0.00 59 1009.6
20260509143523 15 173 4.8 4.8 0.00 0.00 0.00 58 1009.5
20260509143021 16 196 3.2 3.2 0.00 0.00 0.00 57 1009.5
20260509142516 16 196 1.6 3.2 0.00 0.00 0.00 58 1009.5
20260509142011 16 249 1.6 1.6 0.00 0.00 0.00 56 1009.3
20260509141508 15 221 4.8 4.8 0.00 0.00 0.00 58 1009.5
20260509141005 15 235 3.2 3.2 0.00 0.00 0.00 58 1009.7
20260509140501 15 224 1.6 1.6 0.00 0.00 0.00 59 1009.5
20260509140000 15 236 1.6 3.2 0.00 0.00 0.00 61 1009.7
20260509135457 15 214 1.6 1.6 0.00 0.00 0.00 61 1009.8
20260509134954 15 239 3.2 3.2 0.00 0.00 0.00 59 1009.7
20260509134451 15 246 1.6 1.6 0.00 0.00 0.00 60 1009.8
20260509133949 14 223 4.8 8.0 0.00 0.00 0.00 60 1009.8
20260509133445 15 229 4.8 4.8 0.00 0.00 0.00 59 1009.9
20260509132943 15 163 11.3 14.5 0.00 0.00 0.00 58 1009.9
20260509132441 14 249 3.2 3.2 0.00 0.00 0.00 58 1010.1
20260509131937 14 207 1.6 3.2 0.00 0.00 0.00 58 1010.2
20260509131435 14 231 6.4 9.7 0.00 0.00 0.00 57 1010.0
20260509130932 14 157 8.0 14.5 0.00 0.00 0.00 57 1009.8
20260509130427 14 132 8.0 11.3 0.00 0.00 0.00 54 1010.0
20260509125924 14 222 1.6 1.6 0.00 0.00 0.00 54 1009.9
20260509125421 13 257 1.6 1.6 0.00 0.00 0.00 54 1009.8
20260509124917 13 215 4.8 8.0 0.00 0.00 0.00 53 1009.7
20260509124414 13 201 4.8 8.0 0.00 0.00 0.00 51 1009.9
20260509123912 13 148 6.4 8.0 0.00 0.00 0.00 51 1010.0
20260509123409 13 140 6.4 9.7 0.00 0.00 0.00 49 1010.2
20260509122904 13 207 1.6 3.2 0.00 0.00 0.00 48 1010.4
20260509122401 13 239 4.8 9.7 0.00 0.00 0.00 47 1010.2
20260509121858 12 230 6.4 9.7 0.00 0.00 0.00 46 1010.2
20260509121355 12 267 3.2 4.8 0.00 0.00 0.00 46 1010.4
20260509120854 12 238 3.2 8.0 0.00 0.00 0.00 48 1010.6
20260509120351 12 190 4.8 8.0 0.00 0.00 0.00 48 1010.4
20260509115849 11 297 1.6 3.2 0.00 0.00 0.00 48 1010.3
20260509115346 11 222 3.2 3.2 0.00 0.00 0.00 48 1010.3
20260509114843 11 191 4.8 4.8 0.00 0.00 0.00 49 1010.4
20260509114342 11 92 4.8 8.0 0.00 0.00 0.00 49 1010.4
20260509113841 11 104 3.2 4.8 0.00 0.00 0.00 50 1010.5
20260509113337 11 162 9.7 12.9 0.00 0.00 0.00 50 1010.3
20260509112834 11 193 4.8 8.0 0.00 0.00 0.00 51 1010.4
20260509112331 11 297 3.2 4.8 0.00 0.00 0.00 53 1010.4
20260509111828 10 241 8.0 9.7 0.00 0.00 0.00 53 1010.2
20260509111325 10 212 3.2 3.2 0.00 0.00 0.00 54 1010.1
20260509110823 10 237 1.6 3.2 0.00 0.00 0.00 54 1010.5
20260509110319 9 198 3.2 4.8 0.00 0.00 0.00 56 1010.5
20260509105817 9 221 3.2 3.2 0.00 0.00 0.00 56 1010.4
20260509105315 8 173 1.6 3.2 0.00 0.00 0.00 56 1010.5
20260509104812 8 239 0.0 1.6 0.00 0.00 0.00 57 1010.4
20260509104308 8 161 4.8 8.0 0.00 0.00 0.00 57 1010.4
20260509103806 8 230 1.6 1.6 0.00 0.00 0.00 58 1010.5
20260509103303 7 186 3.2 4.8 0.00 0.00 0.00 59 1010.2
20260509102802 7 218 1.6 3.2 0.00 0.00 0.00 60 1010.1
20260509102258 7 225 1.6 3.2 0.00 0.00 0.00 60 1010.2
20260509101754 7 208 3.2 3.2 0.00 0.00 0.00 60 1010.2
20260509101251 6 212 3.2 3.2 0.00 0.00 0.00 63 1010.2
20260509100748 6 225 3.2 3.2 0.00 0.00 0.00 63 1010.4
20260509100246 6 236 1.6 1.6 0.00 0.00 0.00 64 1010.4
20260509095742 6 239 1.6 3.2 0.00 0.00 0.00 64 1010.4
20260509095239 6 249 1.6 3.2 0.00 0.00 0.00 66 1010.5
20260509094737 5 214 1.6 1.6 0.00 0.00 0.00 68 1010.3
20260509094233 5 142 1.6 3.2 0.00 0.00 0.00 69 1010.3
20260509093731 5 267 0.0 0.0 0.00 0.00 0.00 68 1010.4
20260509093228 5 269 0.0 0.0 0.00 0.00 0.00 67 1010.4
20260509092727 5 238 1.6 1.6 0.00 0.00 0.00 67 1010.5
20260509092224 5 219 1.6 3.2 0.00 0.00 0.00 68 1010.4
20260509091722 5 265 0.0 0.0 0.00 0.00 0.00 70 1010.5
20260509091218 5 271 0.0 0.0 0.00 0.00 0.00 71 1010.5
20260509090716 4 265 0.0 0.0 0.00 0.00 0.00 71 1010.6
20260509090213 4 269 0.0 0.0 0.00 0.00 0.00 70 1010.5
20260509085711 5 264 0.0 0.0 0.00 0.00 0.00 69 1010.7
20260509085207 4 277 0.0 0.0 0.00 0.00 0.00 70 1010.8
20260509084704 4 273 0.0 0.0 0.00 0.00 0.00 71 1010.9
20260509084201 5 265 0.0 0.0 0.00 0.00 0.00 70 1010.8
20260509083659 4 273 0.0 0.0 0.00 0.00 0.00 70 1010.9
20260509083154 4 272 0.0 0.0 0.00 0.00 0.00 70 1010.7
20260509082652 4 270 0.0 0.0 0.00 0.00 0.00 69 1010.8
20260509082148 5 274 0.0 0.0 0.00 0.00 0.00 69 1011.0
20260509081645 5 272 0.0 0.0 0.00 0.00 0.00 68 1010.9
20260509081143 5 262 0.0 0.0 0.00 0.00 0.00 68 1010.9
20260509080641 5 258 0.0 0.0 0.00 0.00 0.00 68 1010.9
20260509080138 5 258 0.0 0.0 0.00 0.00 0.00 67 1011.0
20260509075636 5 266 0.0 0.0 0.00 0.00 0.00 66 1011.0
20260509075134 5 270 0.0 0.0 0.00 0.00 0.00 65 1011.0
20260509074630 5 244 0.0 1.6 0.00 0.00 0.00 65 1010.9
20260509074126 5 267 0.0 0.0 0.00 0.00 0.00 65 1011.1
20260509073623 6 260 0.0 0.0 0.00 0.00 0.00 64 1011.2
20260509073120 6 245 0.0 0.0 0.00 0.00 0.00 63 1011.1
20260509072617 6 253 0.0 1.6 0.00 0.00 0.00 61 1011.0
20260509072114 6 242 1.6 1.6 0.00 0.00 0.00 61 1011.1
20260509071610 6 247 0.0 0.0 0.00 0.00 0.00 61 1011.1
20260509071108 6 246 0.0 1.6 0.00 0.00 0.00 59 1011.2
20260509070605 7 256 0.0 0.0 0.00 0.00 0.00 59 1011.1
20260509070101 6 240 0.0 1.6 0.00 0.00 0.00 59 1011.0
20260509065556 7 245 1.6 1.6 0.00 0.00 0.00 59 1010.9
20260509065052 6 246 0.0 0.0 0.00 0.00 0.00 59 1011.1
20260509064550 6 229 0.0 1.6 0.00 0.00 0.00 60 1011.1
20260509064048 6 201 3.2 3.2 0.00 0.00 0.00 60 1011.2
20260509063544 7 267 0.0 0.0 0.00 0.00 0.00 60 1011.2
20260509063041 6 234 3.2 3.2 0.00 0.00 0.00 60 1011.4
20260509062538 6 267 0.0 1.6 0.00 0.00 0.00 60 1011.3
20260509062036 6 258 0.0 1.6 0.00 0.00 0.00 60 1011.0
20260509061532 6 221 1.6 1.6 0.00 0.00 0.00 60 1011.3
20260509061030 6 221 1.6 1.6 0.00 0.00 0.00 61 1011.3
20260509060527 6 218 3.2 3.2 0.00 0.00 0.00 63 1011.5
20260509060023 5 253 0.0 0.0 0.00 0.00 0.00 66 1011.3
20260509055518 5 262 0.0 0.0 0.00 0.00 0.00 65 1011.4
20260509055015 6 239 0.0 1.6 0.00 0.00 0.00 64 1011.5
20260509054511 5 232 0.0 0.0 0.00 0.00 0.00 64 1011.8
20260509054010 5 215 1.6 1.6 0.00 0.00 0.00 66 1011.8
20260509053508 5 246 0.0 0.0 0.00 0.00 0.00 68 1011.9
20260509053004 5 258 0.0 0.0 0.00 0.00 0.00 69 1011.7
20260509052502 4 248 0.0 0.0 0.00 0.00 0.00 71 1011.9
20260509052000 3 254 0.0 0.0 0.00 0.00 0.00 71 1011.9
20260509051457 3 265 0.0 0.0 0.00 0.00 0.00 72 1011.6
20260509050954 3 268 0.0 0.0 0.00 0.00 0.00 73 1011.8
20260509050451 3 263 0.0 0.0 0.00 0.00 0.00 73 1011.8
20260509045947 3 244 0.0 0.0 0.00 0.00 0.00 74 1011.9
20260509045445 2 255 0.0 0.0 0.00 0.00 0.00 75 1012.0
20260509044941 2 247 0.0 0.0 0.00 0.00 0.00 77 1012.1
20260509044440 3 254 0.0 0.0 0.00 0.00 0.00 74 1012.2
20260509043937 3 262 0.0 0.0 0.00 0.00 0.00 70 1012.0
20260509043432 3 262 0.0 0.0 0.00 0.00 0.00 69 1012.2
20260509042928 3 265 0.0 0.0 0.00 0.00 0.00 68 1012.2
20260509042425 4 249 0.0 0.0 0.00 0.00 0.00 67 1012.2
20260509041921 3 262 0.0 0.0 0.00 0.00 0.00 66 1012.3
20260509041418 4 254 0.0 0.0 0.00 0.00 0.00 65 1012.1
20260509040916 4 254 0.0 0.0 0.00 0.00 0.00 65 1012.1
20260509040414 4 253 0.0 0.0 0.00 0.00 0.00 66 1012.0
20260509035910 4 247 0.0 0.0 0.00 0.00 0.00 67 1011.9
20260509035408 3 254 0.0 0.0 0.00 0.00 0.00 70 1011.9
20260509034904 3 262 0.0 0.0 0.00 0.00 0.00 70 1012.1
20260509034402 3 264 0.0 0.0 0.00 0.00 0.00 72 1011.8
20260509033859 3 256 0.0 0.0 0.00 0.00 0.00 75 1012.0
20260509033356 3 262 0.0 0.0 0.00 0.00 0.00 75 1011.8
20260509032852 2 258 0.0 0.0 0.00 0.00 0.00 77 1011.9
20260509032349 2 261 0.0 0.0 0.00 0.00 0.00 78 1011.9
20260509031848 2 173 0.0 0.0 0.00 0.00 0.00 80 1011.9
20260509031344 3 256 0.0 0.0 0.00 0.00 0.00 81 1011.9
20260509030842 3 251 0.0 0.0 0.00 0.00 0.00 81 1012.2
20260509030340 2 246 0.0 0.0 0.00 0.00 0.00 84 1012.2
20260509025837 2 265 0.0 0.0 0.00 0.00 0.00 85 1012.0
20260509025332 2 261 0.0 0.0 0.00 0.00 0.00 85 1012.4
20260509024827 2 234 1.6 1.6 0.00 0.00 0.00 85 1012.4
20260509024324 2 253 0.0 0.0 0.00 0.00 0.00 85 1012.5
20260509023821 2 259 0.0 0.0 0.00 0.00 0.00 84 1012.4
20260509023319 2 262 0.0 0.0 0.00 0.00 0.00 84 1012.3
20260509022815 2 254 0.0 0.0 0.00 0.00 0.00 83 1012.7
20260509022313 3 255 0.0 0.0 0.00 0.00 0.00 83 1012.3
20260509021809 3 254 0.0 0.0 0.00 0.00 0.00 82 1012.4
20260509021306 3 250 0.0 0.0 0.00 0.00 0.00 81 1012.6
20260509020804 3 263 0.0 0.0 0.00 0.00 0.00 80 1012.5
20260509020301 3 262 0.0 0.0 0.00 0.00 0.00 80 1012.3
20260509015759 3 258 0.0 0.0 0.00 0.00 0.00 79 1012.3
20260509015257 3 302 0.0 0.0 0.00 0.00 0.00 78 1012.3
20260509014753 3 302 0.0 0.0 0.00 0.00 0.00 76 1012.3
20260509014250 3 260 0.0 0.0 0.00 0.00 0.00 74 1012.4
20260509013747 3 258 0.0 0.0 0.00 0.00 0.00 74 1012.1
20260509013242 4 259 0.0 0.0 0.00 0.00 0.00 74 1012.0
20260509012739 4 251 0.0 0.0 0.00 0.00 0.00 73 1012.2
20260509012236 5 261 0.0 0.0 0.00 0.00 0.00 72 1012.0
20260509011733 5 264 0.0 0.0 0.00 0.00 0.00 70 1011.9
20260509011231 5 259 0.0 0.0 0.00 0.00 0.00 69 1011.9
20260509010729 5 261 0.0 0.0 0.00 0.00 0.00 68 1012.1
20260509010225 5 261 0.0 0.0 0.00 0.00 0.00 67 1011.9
20260509005723 5 265 0.0 0.0 0.00 0.00 0.00 65 1011.7
20260509005220 6 261 0.0 0.0 0.00 0.00 0.00 64 1011.6
20260509004720 6 258 0.0 0.0 0.00 0.00 0.00 65 1011.5
20260509004218 6 260 0.0 0.0 0.00 0.00 0.00 63 1011.6
20260509003715 6 262 0.0 0.0 0.00 0.00 0.00 62 1011.4
20260509003213 7 264 0.0 0.0 0.00 0.00 0.00 61 1011.4
20260509002710 7 265 0.0 0.0 0.00 0.00 0.00 61 1011.5
20260509002208 8 265 0.0 1.6 0.00 0.00 0.00 59 1011.6
20260509001705 8 262 0.0 0.0 0.00 0.00 0.00 58 1011.5
20260509001200 8 264 0.0 0.0 0.00 0.00 0.00 58 1011.4
20260509000659 8 275 0.0 1.6 0.00 0.00 0.00 56 1011.5
20260509000156 8 276 1.6 1.6 0.00 0.00 0.00 53 1011.5
20260508235653 9 254 1.6 1.6 0.00 0.00 0.00 53 1011.4
20260508235149 9 261 0.0 1.6 0.00 0.00 0.00 52 1011.5
20260508234647 10 306 4.8 4.8 0.00 0.00 0.00 51 1011.4
20260508234143 10 248 1.6 3.2 0.00 0.00 0.00 50 1011.4
20260508233643 10 269 1.6 3.2 0.00 0.00 0.00 49 1011.3
20260508233140 10 276 6.4 9.7 0.00 0.00 0.00 48 1011.2
20260508232637 10 278 1.6 3.2 0.00 0.00 0.00 47 1011.2
20260508232133 10 269 8.0 8.0 0.00 0.00 0.00 45 1011.4
20260508231631 10 262 9.7 12.9 0.00 0.00 0.00 45 1011.3
20260508231128 10 329 8.0 12.9 0.00 0.00 0.00 44 1011.3
20260508230624 10 312 4.8 4.8 0.00 0.00 0.00 44 1011.2
20260508230121 11 239 4.8 4.8 0.00 0.00 0.00 45 1011.4
20260508225619 11 283 4.8 4.8 0.00 0.00 0.00 48 1011.3
20260508225115 11 266 4.8 4.8 0.00 0.00 0.00 48 1011.4